Time,TemperatureF,DewpointF,PressureIn,WindDirection,WindDirectionDegrees,WindSpeedMPH,WindSpeedGustMPH,Humidity,HourlyPrecipIn,Conditions,Clouds,dailyrainin,SolarRadiationWatts/m^2,SoftwareType,DateUTC
2013-01-24 00:06:00,75.9,71.0,30.05,SE,130,4.0,6.0,84,0.00,,,0.00,0,weatherlink.com 1.10,2013-01-24 04:06:00,
2013-01-24 00:21:00,75.8,71.0,30.05,ESE,117,1.0,5.0,85,0.00,,,0.00,0,weatherlink.com 1.10,2013-01-24 04:21:00,
2013-01-24 00:36:00,75.7,71.0,30.06,SE,136,4.0,5.0,86,0.00,,,0.00,0,weatherlink.com 1.10,2013-01-24 04:36:00,
2013-01-24 00:51:00,75.5,71.0,30.05,ESE,123,0.0,7.0,86,0.00,,,0.00,0,weatherlink.com 1.10,2013-01-24 04:51:00,
2013-01-24 01:06:00,75.3,71.0,30.05,SSE,152,1.0,3.0,87,0.00,,,0.00,0,weatherlink.com 1.10,2013-01-24 05:06:00,
2013-01-24 01:21:00,75.1,71.0,30.05,SSE,152,0.0,3.0,87,0.00,,,0.00,0,weatherlink.com 1.10,2013-01-24 05:21:00,
2013-01-24 01:36:00,74.8,71.0,30.04,SSE,152,0.0,0.0,87,0.00,,,0.00,0,weatherlink.com 1.10,2013-01-24 05:36:00,
2013-01-24 01:51:00,74.7,71.0,30.04,SSE,152,0.0,1.0,87,0.00,,,0.00,0,weatherlink.com 1.10,2013-01-24 05:51:00,
2013-01-24 02:06:00,74.7,71.0,30.04,SSE,152,0.0,2.0,87,0.00,,,0.00,0,weatherlink.com 1.10,2013-01-24 06:06:00,
2013-01-24 02:21:00,74.6,71.0,30.03,SSE,152,0.0,2.0,87,0.00,,,0.00,0,weatherlink.com 1.10,2013-01-24 06:21:00,
2013-01-24 02:36:00,74.4,70.0,30.02,SSE,152,1.0,2.0,87,0.00,,,0.00,0,weatherlink.com 1.10,2013-01-24 06:36:00,
2013-01-24 02:51:00,74.4,70.0,30.02,SSE,152,0.0,3.0,87,0.00,,,0.00,0,weatherlink.com 1.10,2013-01-24 06:51:00,
2013-01-24 03:07:00,74.6,70.0,30.02,ESE,114,5.0,13.0,86,0.00,,,0.00,0,weatherlink.com 1.10,2013-01-24 07:07:00,
2013-01-24 03:22:00,74.7,70.0,30.02,ESE,123,7.0,9.0,86,0.00,,,0.00,0,weatherlink.com 1.10,2013-01-24 07:22:00,
2013-01-24 03:36:00,74.4,70.0,30.02,East,98,3.0,8.0,86,0.00,,,0.00,0,weatherlink.com 1.10,2013-01-24 07:36:00,
2013-01-24 03:52:00,74.3,70.0,30.02,ESE,103,5.0,9.0,85,0.00,,,0.00,0,weatherlink.com 1.10,2013-01-24 07:52:00,
2013-01-24 04:06:00,74.2,70.0,30.01,East,80,5.0,5.0,85,0.00,,,0.00,0,weatherlink.com 1.10,2013-01-24 08:06:00,
2013-01-24 04:21:00,74.4,69.0,30.01,ESE,117,1.0,4.0,84,0.00,,,0.00,0,weatherlink.com 1.10,2013-01-24 08:21:00,
2013-01-24 04:36:00,75.2,70.0,30.02,ESE,113,5.0,7.0,83,0.00,,,0.00,0,weatherlink.com 1.10,2013-01-24 08:36:00,
2013-01-24 04:51:00,75.7,70.0,30.02,ENE,75,5.0,7.0,83,0.00,,,0.00,0,weatherlink.com 1.10,2013-01-24 08:51:00,
2013-01-24 05:07:00,75.5,70.0,30.02,ESE,105,1.0,7.0,83,0.00,,,0.00,0,weatherlink.com 1.10,2013-01-24 09:07:00,
2013-01-24 05:21:00,75.4,70.0,30.03,SE,124,1.0,7.0,84,0.00,,,0.00,0,weatherlink.com 1.10,2013-01-24 09:21:00,
2013-01-24 05:36:00,75.1,70.0,30.03,SE,130,4.0,7.0,84,0.00,,,0.00,0,weatherlink.com 1.10,2013-01-24 09:36:00,
2013-01-24 05:51:00,75.0,70.0,30.03,SE,132,1.0,7.0,83,0.00,,,0.00,0,weatherlink.com 1.10,2013-01-24 09:51:00,
2013-01-24 06:06:00,75.2,70.0,30.03,East,79,5.0,10.0,83,0.00,,,0.00,0,weatherlink.com 1.10,2013-01-24 10:06:00,
2013-01-24 06:22:00,75.3,70.0,30.03,SE,136,5.0,7.0,82,0.00,,,0.00,0,weatherlink.com 1.10,2013-01-24 10:22:00,
2013-01-24 06:37:00,75.3,70.0,30.04,SE,132,7.0,9.0,83,0.00,,,0.00,0,weatherlink.com 1.10,2013-01-24 10:37:00,
2013-01-24 06:51:00,75.2,69.0,30.04,SE,127,3.0,5.0,82,0.00,,,0.00,0,weatherlink.com 1.10,2013-01-24 10:51:00,
2013-01-24 07:06:00,75.3,70.0,30.05,ESE,119,3.0,6.0,83,0.00,,,0.00,9,weatherlink.com 1.10,2013-01-24 11:06:00,
2013-01-24 07:21:00,75.6,70.0,30.05,East,84,2.0,7.0,83,0.00,,,0.00,37,weatherlink.com 1.10,2013-01-24 11:21:00,
2013-01-24 07:37:00,76.2,70.0,30.06,East,88,5.0,11.0,82,0.00,,,0.00,102,weatherlink.com 1.10,2013-01-24 11:37:00,
2013-01-24 07:52:00,77.0,70.0,30.07,ESE,119,9.0,10.0,80,0.00,,,0.00,172,weatherlink.com 1.10,2013-01-24 11:52:00,
2013-01-24 08:07:00,77.5,70.0,30.07,ESE,103,2.0,10.0,78,0.00,,,0.00,113,weatherlink.com 1.10,2013-01-24 12:07:00,
2013-01-24 08:22:00,77.8,70.0,30.08,East,90,7.0,12.0,78,0.00,,,0.00,135,weatherlink.com 1.10,2013-01-24 12:22:00,
2013-01-24 08:37:00,78.2,70.0,30.09,East,84,7.0,9.0,77,0.00,,,0.00,148,weatherlink.com 1.10,2013-01-24 12:37:00,
2013-01-24 08:52:00,78.5,71.0,30.09,East,94,7.0,12.0,77,0.00,,,0.00,167,weatherlink.com 1.10,2013-01-24 12:52:00,
2013-01-24 09:07:00,78.9,71.0,30.09,SE,146,7.0,13.0,76,0.00,,,0.00,200,weatherlink.com 1.10,2013-01-24 13:07:00,
2013-01-24 09:22:00,79.2,71.0,30.09,ENE,74,1.0,10.0,76,0.00,,,0.00,232,weatherlink.com 1.10,2013-01-24 13:22:00,
2013-01-24 09:37:00,80.4,71.0,30.10,ENE,77,5.0,13.0,73,0.00,,,0.00,529,weatherlink.com 1.10,2013-01-24 13:37:00,
2013-01-24 09:52:00,81.9,72.0,30.10,ESE,105,4.0,10.0,71,0.00,,,0.00,575,weatherlink.com 1.10,2013-01-24 13:52:00,
2013-01-24 10:07:00,82.5,70.0,30.10,East,86,8.0,11.0,67,0.00,,,0.00,563,weatherlink.com 1.10,2013-01-24 14:07:00,
2013-01-24 10:22:00,83.3,71.0,30.10,ENE,70,8.0,13.0,66,0.00,,,0.00,413,weatherlink.com 1.10,2013-01-24 14:22:00,
2013-01-24 10:39:00,84.5,70.0,30.09,ENE,72,3.0,8.0,63,0.00,,,0.00,74,weatherlink.com 1.10,2013-01-24 14:39:00,
2013-01-24 10:52:00,84.6,71.0,30.09,NE,46,8.0,14.0,64,0.00,,,0.00,153,weatherlink.com 1.10,2013-01-24 14:52:00,
2013-01-24 11:07:00,83.2,72.0,30.09,ENE,63,5.0,14.0,68,0.00,,,0.00,95,weatherlink.com 1.10,2013-01-24 15:07:00,
2013-01-24 11:22:00,83.4,71.0,30.09,ENE,60,8.0,15.0,67,0.00,,,0.00,250,weatherlink.com 1.10,2013-01-24 15:22:00,
2013-01-24 11:37:00,83.8,71.0,30.08,NE,47,7.0,15.0,66,0.00,,,0.00,737,weatherlink.com 1.10,2013-01-24 15:37:00,
2013-01-24 11:52:00,84.0,71.0,30.07,NNE,28,4.0,17.0,65,0.00,,,0.00,758,weatherlink.com 1.10,2013-01-24 15:52:00,
2013-01-24 12:08:00,84.6,71.0,30.07,ENE,63,8.0,14.0,64,0.00,,,0.00,773,weatherlink.com 1.10,2013-01-24 16:08:00,
2013-01-24 12:23:00,84.8,71.0,30.06,East,80,8.0,13.0,64,0.00,,,0.00,788,weatherlink.com 1.10,2013-01-24 16:23:00,
2013-01-24 12:38:00,85.4,71.0,30.05,East,80,7.0,16.0,63,0.00,,,0.00,784,weatherlink.com 1.10,2013-01-24 16:38:00,
2013-01-24 12:52:00,85.0,71.0,30.05,ENE,58,8.0,16.0,63,0.00,,,0.00,779,weatherlink.com 1.10,2013-01-24 16:52:00,
2013-01-24 13:08:00,85.3,72.0,30.04,ENE,63,9.0,13.0,64,0.00,,,0.00,780,weatherlink.com 1.10,2013-01-24 17:08:00,
2013-01-24 13:23:00,85.3,72.0,30.03,ENE,78,13.0,15.0,64,0.00,,,0.00,763,weatherlink.com 1.10,2013-01-24 17:23:00,
2013-01-24 13:38:00,85.1,72.0,30.02,East,98,3.0,17.0,64,0.00,,,0.00,745,weatherlink.com 1.10,2013-01-24 17:38:00,
2013-01-24 13:53:00,84.1,71.0,30.01,NE,56,6.0,15.0,65,0.00,,,0.00,726,weatherlink.com 1.10,2013-01-24 17:53:00,
2013-01-24 14:08:00,85.1,72.0,30.00,ENE,58,5.0,13.0,64,0.00,,,0.00,698,weatherlink.com 1.10,2013-01-24 18:08:00,
2013-01-24 14:23:00,85.2,72.0,30.00,East,86,7.0,15.0,65,0.00,,,0.00,671,weatherlink.com 1.10,2013-01-24 18:23:00,
2013-01-24 14:38:00,84.3,72.0,29.99,East,93,8.0,14.0,66,0.00,,,0.00,635,weatherlink.com 1.10,2013-01-24 18:38:00,
2013-01-24 14:53:00,84.1,72.0,29.99,East,94,2.0,19.0,67,0.00,,,0.00,599,weatherlink.com 1.10,2013-01-24 18:53:00,
2013-01-24 15:08:00,83.3,72.0,29.98,NE,35,11.0,15.0,68,0.00,,,0.00,559,weatherlink.com 1.10,2013-01-24 19:08:00,
2013-01-24 15:23:00,83.4,72.0,29.98,NE,40,6.0,16.0,69,0.00,,,0.00,520,weatherlink.com 1.10,2013-01-24 19:23:00,
2013-01-24 15:38:00,83.4,72.0,29.99,NE,46,8.0,13.0,68,0.00,,,0.00,471,weatherlink.com 1.10,2013-01-24 19:38:00,
2013-01-24 15:53:00,82.9,72.0,29.98,ENE,72,9.0,15.0,69,0.00,,,0.00,425,weatherlink.com 1.10,2013-01-24 19:53:00,
2013-01-24 16:08:00,82.6,71.0,29.98,ENE,67,5.0,13.0,69,0.00,,,0.00,373,weatherlink.com 1.10,2013-01-24 20:08:00,
2013-01-24 16:23:00,82.3,72.0,29.98,NE,47,4.0,17.0,70,0.00,,,0.00,178,weatherlink.com 1.10,2013-01-24 20:23:00,
2013-01-24 16:38:00,81.9,71.0,29.98,ENE,65,5.0,12.0,69,0.00,,,0.00,193,weatherlink.com 1.10,2013-01-24 20:38:00,
2013-01-24 16:53:00,81.3,71.0,29.98,ENE,61,11.0,17.0,71,0.00,,,0.00,195,weatherlink.com 1.10,2013-01-24 20:53:00,
2013-01-24 17:08:00,80.8,71.0,29.99,East,80,9.0,18.0,73,0.00,,,0.00,72,weatherlink.com 1.10,2013-01-24 21:08:00,
2013-01-24 17:23:00,80.3,71.0,30.00,ENE,67,10.0,16.0,74,0.00,,,0.00,44,weatherlink.com 1.10,2013-01-24 21:23:00,
2013-01-24 17:38:00,79.7,71.0,30.00,East,84,10.0,14.0,75,0.00,,,0.00,33,weatherlink.com 1.10,2013-01-24 21:38:00,
2013-01-24 17:53:00,79.3,71.0,30.00,NE,53,6.0,14.0,76,0.00,,,0.00,19,weatherlink.com 1.10,2013-01-24 21:53:00,
2013-01-24 18:08:00,79.0,71.0,30.00,ENE,78,7.0,14.0,77,0.00,,,0.00,7,weatherlink.com 1.10,2013-01-24 22:08:00,
2013-01-24 18:23:00,78.7,71.0,30.01,ENE,64,7.0,14.0,77,0.00,,,0.00,0,weatherlink.com 1.10,2013-01-24 22:23:00,
2013-01-24 18:38:00,78.4,71.0,30.01,ENE,63,7.0,14.0,77,0.00,,,0.00,0,weatherlink.com 1.10,2013-01-24 22:38:00,
2013-01-24 18:53:00,78.3,71.0,30.01,NE,56,12.0,12.0,77,0.00,,,0.00,0,weatherlink.com 1.10,2013-01-24 22:53:00,
2013-01-24 19:08:00,78.2,70.0,30.01,ENE,64,8.0,17.0,77,0.00,,,0.00,0,weatherlink.com 1.10,2013-01-24 23:08:00,
2013-01-24 19:23:00,78.2,70.0,30.02,East,87,6.0,14.0,77,0.00,,,0.00,0,weatherlink.com 1.10,2013-01-24 23:23:00,
2013-01-24 19:38:00,78.1,71.0,30.02,East,87,5.0,11.0,78,0.00,,,0.00,0,weatherlink.com 1.10,2013-01-24 23:38:00,
2013-01-24 19:53:00,77.8,70.0,30.02,ENE,65,4.0,11.0,77,0.00,,,0.00,0,weatherlink.com 1.10,2013-01-24 23:53:00,
2013-01-24 20:08:00,77.9,70.0,30.03,East,94,1.0,8.0,77,0.00,,,0.00,0,weatherlink.com 1.10,2013-01-25 00:08:00,
2013-01-24 20:23:00,77.8,70.0,30.03,East,100,6.0,8.0,78,0.00,,,0.00,0,weatherlink.com 1.10,2013-01-25 00:23:00,
2013-01-24 20:53:00,77.5,70.0,30.04,East,81,3.0,5.0,77,0.00,,,0.00,0,weatherlink.com 1.10,2013-01-25 00:53:00,
2013-01-24 21:08:00,77.7,70.0,30.05,East,81,1.0,5.0,77,0.00,,,0.00,0,weatherlink.com 1.10,2013-01-25 01:08:00,
2013-01-24 21:23:00,77.6,70.0,30.05,ESE,108,3.0,7.0,77,0.00,,,0.00,0,weatherlink.com 1.10,2013-01-25 01:23:00,
2013-01-24 21:38:00,77.5,70.0,30.05,ESE,113,3.0,5.0,78,0.00,,,0.00,0,weatherlink.com 1.10,2013-01-25 01:38:00,
2013-01-24 21:53:00,77.2,70.0,30.05,ESE,104,1.0,6.0,78,0.00,,,0.00,0,weatherlink.com 1.10,2013-01-25 01:53:00,
2013-01-24 22:08:00,77.0,70.0,30.05,ESE,104,0.0,6.0,78,0.00,,,0.00,0,weatherlink.com 1.10,2013-01-25 02:08:00,
2013-01-24 22:23:00,76.8,69.0,30.06,ESE,104,3.0,3.0,78,0.00,,,0.00,0,weatherlink.com 1.10,2013-01-25 02:23:00,
2013-01-24 22:53:00,76.6,70.0,30.06,ESE,104,0.0,5.0,79,0.00,,,0.00,0,weatherlink.com 1.10,2013-01-25 02:53:00,
2013-01-24 23:08:00,76.5,70.0,30.06,ESE,104,1.0,2.0,79,0.00,,,0.00,0,weatherlink.com 1.10,2013-01-25 03:08:00,
2013-01-24 23:23:00,76.7,70.0,30.05,ESE,104,0.0,2.0,80,0.00,,,0.00,0,weatherlink.com 1.10,2013-01-25 03:23:00,
2013-01-24 23:38:00,76.7,70.0,30.05,ESE,104,1.0,2.0,80,0.00,,,0.00,0,weatherlink.com 1.10,2013-01-25 03:38:00,
2013-01-24 23:53:00,76.4,70.0,30.05,ESE,105,2.0,4.0,80,0.00,,,0.00,0,weatherlink.com 1.10,2013-01-25 03:53:00,